Flag for Switzerland Weather past 2 weeks in Stäfa, Zurich, Switzerland

Now
72 °F

Mild.


Feels Like: 72 °F
Forecast: 59 / 74 °F
Wind: 1 mph from Southeast

Location: Zurich Town / Ville.

Current Time: Jul 7, 2015 at 5:23:25 AM

Latest Report: Jul 7, 2015 at 4:00 AM


Visibility: N/A

Pressure: 29.98 "Hg

Humidity: 83%

Dew point: 67 °F

Location of StäfaLocation

Historic Weather in Stäfa — Graph

°F

Stäfa temperature yesterday

Maximum temperature yesterday: 85 °F (at 5:00 PM)
Minimum temperature yesterday: 70 °F (at 8:00 AM)
Average temperature yesterday: 77 °F

Past Weeks' High & Low Weather Summary

 TemperatureHumidityPressure
High94 °F (Jul 4, 4:00 PM)96% (Jun 23, 6:00 AM)30.23 "Hg (Jun 23, 6:00 AM)
Low47 °F (Jun 24, 5:00 AM)26% (Jun 25, 8:00 PM)29.70 "Hg (Jun 22, 10:00 PM)
Average71 °F60%30.08 "Hg
* Reported Jun 22 4:00 AM — Jul 7 4:00 AM, Stäfa, Weather by CustomWeather, © 2015

Note: Actual official high and low records may vary slightly from our data, if they occured in-between our weather recording intervals... More about our weather records

Advertising

Stäfa weather history for previous 24 hours

 ConditionsComfort  
Time TempWeatherWind HumidityBarometerVisibility
4:00 AM
Tue, Jul 7
72 °FMild.1 mph83%29.98 "HgN/A
3:00 AM72 °FMild.3 mph81%30.00 "HgN/A
2:00 AM72 °FMild.1 mph81%30.01 "HgN/A
1:00 AM73 °FMild.1 mph80%30.02 "HgN/A
12:00 AM74 °FMild.1 mph77%30.02 "HgN/A
10:00 PM
Mon, Jul 6
77 °FWarm.5 mph69%30.02 "HgN/A
9:00 PM79 °FWarm.3 mph63%30.01 "HgN/A
8:00 PM82 °FWarm.3 mph59%30.01 "HgN/A
7:00 PM82 °FWarm.3 mph60%30.01 "HgN/A
6:00 PM84 °FWarm.1 mph50%30.01 "HgN/A
5:00 PM85 °FWarm.3 mph49%30.02 "HgN/A
4:00 PM82 °FWarm.3 mph52%30.05 "HgN/A
3:00 PM83 °FWarm.3 mph52%30.06 "HgN/A
2:00 PM82 °FWarm.3 mph57%30.08 "HgN/A
1:00 PM79 °FWarm.3 mph58%30.10 "HgN/A
12:00 PM77 °FMild.2 mph59%30.12 "HgN/A
11:00 AM75 °FMild.2 mph68%30.14 "HgN/A
10:00 AM73 °FMild.3 mph67%30.15 "HgN/A
9:00 AM71 °FMild.2 mph84%30.16 "HgN/A
8:00 AM70 °FMild.2 mph83%30.16 "HgN/A
7:00 AM71 °FMild.5 mph85%30.16 "HgN/A
6:00 AM70 °FMild.1 mph88%30.14 "HgN/A
Weather by CustomWeather, © 2015

See weather overviewHow to use our weather pages